When you browse on this site, cookies collect data to enhance your experience and personalize the content and advertising you see.
Visit our Privacy Policy to learn more. By continuing to use the site, you agree to this use of cookies and data.
  • In Hungary
  • List of Countries
  • For 7 days
  • Water Temperature
  • Weather Map
  • News
  • Weather Widgets
  • user-avatar
    Login

    Hourly Weather Malynivka

    Today, 12 November, Tuesday

    Time Temperature Precipitation Wind Pressure Humidity
    00:00 +4°C° 0 mm 2 mps 744 mmHg 87%
    01:00 +4°C° 0 mm 2 mps 744 mmHg 88%
    02:00 +4°C° 0 mm 2 mps 745 mmHg 90%
    03:00 +4°C° 0 mm 2 mps 744 mmHg 90%
    04:00 +3°C° 0 mm 3 mps 744 mmHg 90%
    05:00 +3°C° 0 mm 3 mps 744 mmHg 90%
    06:00 +3°C° 0 mm 4 mps 744 mmHg 89%
    07:00 +3°C° 0 mm 4 mps 744 mmHg 88%
    08:00 +3°C° 0 mm 5 mps 744 mmHg 85%
    09:00 +5°C° 0 mm 5 mps 744 mmHg 79%
    10:00 +7°C° 0 mm 6 mps 744 mmHg 74%
    11:00 +8°C° 0 mm 6 mps 744 mmHg 68%
    12:00 +9°C° 0 mm 6 mps 743 mmHg 67%
    13:00 +10°C° 0 mm 6 mps 743 mmHg 65%
    14:00 +12°C° 0 mm 5 mps 742 mmHg 63%
    15:00 +10°C° 0 mm 5 mps 742 mmHg 66%
    16:00 +10°C° 0 mm 5 mps 742 mmHg 69%
    17:00 +9°C° 0 mm 5 mps 741 mmHg 73%
    18:00 +9°C° 0 mm 6 mps 741 mmHg 73%
    19:00 +9°C° 0 mm 6 mps 741 mmHg 74%
    20:00 +9°C° 0 mm 7 mps 741 mmHg 75%
    21:00 +10°C° 0 mm 7 mps 741 mmHg 74%
    22:00 +10°C° 0 mm 6 mps 741 mmHg 73%
    23:00 +10°C° 0 mm 6 mps 741 mmHg 72%

    Tomorrow, 13 November, Wednesday

    Time Temperature Precipitation Wind Pressure Humidity
    00:00 +11°C° 0 mm 7 mps 741 mmHg 71%
    01:00 +11°C° 0 mm 7 mps 741 mmHg 71%
    02:00 +11°C° 0 mm 7 mps 740 mmHg 70%
    03:00 +11°C° 0 mm 7 mps 740 mmHg 69%
    04:00 +11°C° 0 mm 7 mps 740 mmHg 68%
    05:00 +11°C° 0 mm 7 mps 739 mmHg 67%
    06:00 +11°C° 0 mm 8 mps 740 mmHg 68%
    07:00 +11°C° 0 mm 8 mps 740 mmHg 69%
    08:00 +11°C° 0 mm 8 mps 740 mmHg 69%
    09:00 +12°C° 0 mm 9 mps 739 mmHg 63%
    10:00 +15°C° 0 mm 9 mps 739 mmHg 56%
    11:00 +16°C° 0 mm 10 mps 739 mmHg 50%
    12:00 +17°C° 0 mm 10 mps 739 mmHg 48%
    13:00 +17°C° 0 mm 9 mps 739 mmHg 46%
    14:00 +18°C° 0 mm 9 mps 738 mmHg 44%
    15:00 +17°C° 0 mm 9 mps 738 mmHg 46%
    16:00 +16°C° 0 mm 8 mps 738 mmHg 48%
    17:00 +16°C° 0 mm 8 mps 738 mmHg 50%
    18:00 +15°C° 0 mm 8 mps 738 mmHg 51%
    19:00 +15°C° 0 mm 9 mps 738 mmHg 53%
    20:00 +15°C° 0 mm 9 mps 738 mmHg 54%
    21:00 +15°C° 0 mm 9 mps 738 mmHg 54%
    22:00 +13°C° 0 mm 9 mps 738 mmHg 54%
    23:00 +13°C° 0 mm 8 mps 738 mmHg 54%

    Day after tomorrow, 14 November, Thursday

    Time Temperature Precipitation Wind Pressure Humidity
    00:00 +13°C° 0 mm 8 mps 738 mmHg 55%
    01:00 +13°C° 0 mm 8 mps 738 mmHg 55%
    02:00 +12°C° 0 mm 8 mps 739 mmHg 55%
    03:00 +12°C° 0 mm 8 mps 739 mmHg 57%
    04:00 +11°C° 0 mm 7 mps 739 mmHg 59%
    05:00 +11°C° 0 mm 7 mps 739 mmHg 61%
    06:00 +11°C° 0 mm 7 mps 739 mmHg 62%
    07:00 +10°C° 0 mm 7 mps 739 mmHg 63%
    08:00 +10°C° 0 mm 6 mps 740 mmHg 64%
    09:00 +11°C° 0 mm 6 mps 740 mmHg 62%
    10:00 +11°C° 0 mm 6 mps 740 mmHg 61%
    11:00 +13°C° 0 mm 6 mps 741 mmHg 59%
    12:00 +13°C° 0 mm 6 mps 741 mmHg 59%
    13:00 +13°C° 0 mm 5 mps 741 mmHg 59%
    14:00 +14°C° 0 mm 5 mps 741 mmHg 58%
    15:00 +13°C° 0 mm 5 mps 741 mmHg 61%
    16:00 +12°C° 0 mm 5 mps 741 mmHg 63%
    17:00 +10°C° 0 mm 5 mps 741 mmHg 65%
    18:00 +10°C° 0 mm 5 mps 741 mmHg 68%
    19:00 +9°C° 0 mm 5 mps 742 mmHg 70%
    20:00 +9°C° 0 mm 5 mps 742 mmHg 72%
    21:00 +8°C° 0 mm 4 mps 742 mmHg 74%
    22:00 +8°C° 0 mm 4 mps 742 mmHg 75%
    23:00 +8°C° 0 mm 4 mps 742 mmHg 76%

    15 November, Friday

    Time Temperature Precipitation Wind Pressure Humidity
    00:00 +8°C° 0 mm 4 mps 742 mmHg 77%
    01:00 +7°C° 0 mm 4 mps 742 mmHg 78%
    02:00 +7°C° 0 mm 4 mps 742 mmHg 79%
    03:00 +7°C° 0 mm 4 mps 742 mmHg 79%
    04:00 +6°C° 0 mm 4 mps 742 mmHg 79%
    05:00 +6°C° 0 mm 4 mps 742 mmHg 79%
    06:00 +6°C° 0 mm 4 mps 743 mmHg 78%
    07:00 +6°C° 0 mm 4 mps 743 mmHg 78%
    08:00 +5°C° 0 mm 4 mps 743 mmHg 78%
    09:00 +6°C° 0 mm 4 mps 743 mmHg 74%
    10:00 +7°C° 0 mm 5 mps 744 mmHg 69%
    11:00 +7°C° 0 mm 5 mps 744 mmHg 65%
    12:00 +8°C° 0 mm 5 mps 744 mmHg 64%
    13:00 +8°C° 0 mm 4 mps 744 mmHg 63%
    14:00 +10°C° 0 mm 4 mps 744 mmHg 62%
    15:00 +8°C° 0 mm 4 mps 744 mmHg 65%
    16:00 +7°C° 0 mm 4 mps 744 mmHg 68%
    17:00 +7°C° 0 mm 4 mps 744 mmHg 71%
    18:00 +6°C° 0 mm 4 mps 744 mmHg 72%
    19:00 +6°C° 0 mm 4 mps 744 mmHg 73%
    20:00 +5°C° 0 mm 4 mps 745 mmHg 74%
    21:00 +5°C° 0 mm 4 mps 745 mmHg 75%
    22:00 +5°C° 0 mm 4 mps 745 mmHg 76%
    23:00 +4°C° 0 mm 4 mps 745 mmHg 76%

    16 November, Saturday

    Time Temperature Precipitation Wind Pressure Humidity
    00:00 +4°C° 0 mm 4 mps 745 mmHg 77%
    01:00 +4°C° 0 mm 4 mps 745 mmHg 78%
    02:00 +4°C° 0 mm 4 mps 745 mmHg 79%
    03:00 +4°C° 0 mm 4 mps 745 mmHg 80%
    04:00 +4°C° 0 mm 4 mps 745 mmHg 82%
    05:00 +4°C° 0 mm 4 mps 745 mmHg 84%
    06:00 +4°C° 0 mm 4 mps 745 mmHg 85%
    07:00 +4°C° 0 mm 4 mps 745 mmHg 86%
    08:00 +4°C° 0 mm 4 mps 746 mmHg 87%
    09:00 +5°C° 0 mm 4 mps 746 mmHg 83%
    10:00 +7°C° 0 mm 4 mps 746 mmHg 80%
    11:00 +8°C° 0 mm 4 mps 747 mmHg 76%
    12:00 +10°C° 0 mm 4 mps 747 mmHg 74%
    13:00 +10°C° 0 mm 4 mps 746 mmHg 72%
    14:00 +11°C° 0 mm 4 mps 746 mmHg 70%
    15:00 +10°C° 0 mm 4 mps 746 mmHg 73%
    16:00 +9°C° 0 mm 3 mps 746 mmHg 76%
    17:00 +8°C° 0 mm 3 mps 746 mmHg 79%
    18:00 +8°C° 0 mm 3 mps 747 mmHg 78%
    19:00 +7°C° 0 mm 3 mps 747 mmHg 77%
    20:00 +6°C° 0 mm 4 mps 747 mmHg 76%
    21:00 +6°C° 0 mm 4 mps 747 mmHg 76%
    22:00 +5°C° 0 mm 4 mps 747 mmHg 77%
    23:00 +5°C° 0 mm 4 mps 747 mmHg 78%

    17 November, Sunday

    Time Temperature Precipitation Wind Pressure Humidity
    00:00 +4°C° 0 mm 4 mps 747 mmHg 78%
    01:00 +4°C° 0 mm 4 mps 747 mmHg 79%
    02:00 +4°C° 0 mm 3 mps 747 mmHg 80%
    03:00 +3°C° 0 mm 4 mps 747 mmHg 81%
    04:00 +3°C° 0 mm 4 mps 747 mmHg 82%
    05:00 +1°C° 0 mm 4 mps 747 mmHg 82%
    06:00 +1°C° 0 mm 5 mps 747 mmHg 83%
    07:00 +1°C° 0 mm 5 mps 747 mmHg 83%
    08:00 +1°C° 0 mm 5 mps 747 mmHg 83%
    09:00 +2°C° 0 mm 6 mps 747 mmHg 77%
    10:00 +3°C° 0 mm 6 mps 748 mmHg 72%
    11:00 +5°C° 0 mm 7 mps 748 mmHg 67%
    12:00 +5°C° 0 mm 7 mps 747 mmHg 65%
    13:00 +7°C° 0 mm 6 mps 747 mmHg 62%
    14:00 +8°C° 0 mm 6 mps 747 mmHg 60%
    15:00 +7°C° 0 mm 6 mps 747 mmHg 63%
    16:00 +5°C° 0 mm 6 mps 746 mmHg 67%
    17:00 +4°C° 0 mm 6 mps 746 mmHg 70%
    18:00 +3°C° 0 mm 6 mps 746 mmHg 73%
    19:00 +3°C° 0 mm 6 mps 746 mmHg 77%
    20:00 +2°C° 0 mm 6 mps 746 mmHg 80%
    21:00 +3°C° 0 mm 6 mps 746 mmHg 80%
    22:00 +3°C° 0 mm 7 mps 746 mmHg 79%
    23:00 +3°C° 0 mm 7 mps 746 mmHg 79%
    Show more